STARLINK-32542 (62177 NORAD) Tracking and Keplerian Element Data

This shows tracking and keplerian element data for the satellite.

Feedback or suggestion? Click here.




ElementValue
Catalog62177
NameSTARLINK-32542
Epoch Orbit587
Epoch Day34.83335648
Epoch Year2025
RAAN90.3608
Inclination69.9994
Eccentricity0.0003535
Argument of Perigee275.4441
Mean Anonmoly98.7668
Mean Motion15.15235153
Decay Rate-0.01415803
L11 62177U 24225Q 25034.83335648 -.01415803 00000+0 -81861-1 0 9990
L22 62177 69.9994 90.3608 0003535 275.4441 98.7668 15.15235153 5875



Live tracking and technical data element details for STARLINK-32542 (NORAD 62177). STARLINK-32542 can be tracked NOW for your location showing map with azimuth and elevation plus other details from your city location.







IsCatalogInMostPopularTable: catalog: 62177, numindb: 12
Update: records affected: 1



GetName: 62177 STARLINK-32542

Hit Count: updated at: Sun, 18 May 2025 22:50:58 GMT